Hourly Weather Allanche

Today, 27 February, Saturday

Time Temperature Precipitation Wind Pressure Humidity
00:00 0°C° 0 mm 3 mps 676 mmHg 88%
01:00 0°C° 0 mm 3 mps 676 mmHg 89%
02:00 -1°C° 0 mm 4 mps 675 mmHg 90%
03:00 -1°C° 0 mm 4 mps 675 mmHg 91%
04:00 0°C° 0 mm 3 mps 675 mmHg 91%
05:00 -1°C° 0 mm 3 mps 675 mmHg 91%
06:00 -1°C° 0 mm 3 mps 675 mmHg 90%
07:00 0°C° 0 mm 3 mps 675 mmHg 88%
08:00 -1°C° 0 mm 4 mps 675 mmHg 86%
09:00 0°C° 0 mm 4 mps 675 mmHg 83%
10:00 0°C° 0 mm 4 mps 675 mmHg 80%
11:00 +1°C° 0 mm 4 mps 674 mmHg 77%
12:00 +1°C° 0 mm 4 mps 674 mmHg 75%
13:00 +1°C° 0 mm 4 mps 674 mmHg 74%
14:00 +1°C° 0 mm 4 mps 674 mmHg 73%
15:00 +1°C° 0 mm 4 mps 673 mmHg 73%
16:00 +1°C° 0 mm 4 mps 673 mmHg 76%
17:00 0°C° 0 mm 5 mps 673 mmHg 78%
18:00 0°C° 0 mm 5 mps 673 mmHg 81%
19:00 -1°C° 0 mm 4 mps 673 mmHg 83%
20:00 -1°C° 0 mm 4 mps 673 mmHg 85%
21:00 -1°C° 0 mm 3 mps 673 mmHg 87%
22:00 -1°C° 0 mm 2 mps 673 mmHg 89%
23:00 -2°C° 0 mm 2 mps 673 mmHg 92%

Tomorrow, 28 February, Sunday

Time Temperature Precipitation Wind Pressure Humidity
00:00 -1°C° 0 mm 1 mps 673 mmHg 94%
01:00 -1°C° 0 mm 1 mps 672 mmHg 94%
02:00 -1°C° 0 mm 1 mps 672 mmHg 93%
03:00 -1°C° 0 mm 1 mps 672 mmHg 93%
04:00 -1°C° 0 mm 1 mps 672 mmHg 91%
05:00 0°C° 0 mm 1 mps 672 mmHg 89%
06:00 0°C° 0 mm 1 mps 672 mmHg 87%
07:00 +2°C° 0 mm 1 mps 673 mmHg 78%
08:00 +5°C° 0 mm 1 mps 674 mmHg 69%
09:00 +7°C° 0 mm 1 mps 674 mmHg 60%
10:00 +9°C° 0 mm 1 mps 675 mmHg 55%
11:00 +10°C° 0 mm 2 mps 675 mmHg 51%
12:00 +12°C° 0 mm 2 mps 675 mmHg 47%
13:00 +12°C° 0 mm 2 mps 675 mmHg 48%
14:00 +12°C° 0 mm 2 mps 674 mmHg 49%
15:00 +11°C° 0 mm 3 mps 674 mmHg 50%
16:00 +8°C° 0 mm 2 mps 674 mmHg 60%
17:00 +6°C° 0 mm 2 mps 673 mmHg 70%
18:00 +5°C° 0 mm 1 mps 673 mmHg 80%
19:00 +4°C° 0 mm 1 mps 673 mmHg 82%
20:00 +3°C° 0 mm 1 mps 673 mmHg 85%
21:00 +3°C° 0 mm 1 mps 673 mmHg 87%
22:00 +3°C° 0 mm 1 mps 673 mmHg 87%
23:00 +2°C° 0 mm 1 mps 673 mmHg 87%

Day after tomorrow, 1 March, Monday

Time Temperature Precipitation Wind Pressure Humidity
00:00 +2°C° 0 mm 1 mps 673 mmHg 87%
01:00 +2°C° 0 mm 1 mps 673 mmHg 85%
02:00 +2°C° 0 mm 1 mps 672 mmHg 82%
03:00 +2°C° 0 mm 1 mps 672 mmHg 80%
04:00 +2°C° 0 mm 1 mps 672 mmHg 77%
05:00 +1°C° 0 mm 1 mps 672 mmHg 75%
06:00 +1°C° 0 mm 1 mps 672 mmHg 72%
07:00 +3°C° 0 mm 1 mps 673 mmHg 63%
08:00 +5°C° 0 mm 1 mps 673 mmHg 55%
09:00 +7°C° 0 mm 1 mps 674 mmHg 46%
10:00 +8°C° 0 mm 2 mps 674 mmHg 43%
11:00 +10°C° 0 mm 2 mps 674 mmHg 40%
12:00 +12°C° 0 mm 2 mps 675 mmHg 37%
13:00 +12°C° 0 mm 2 mps 674 mmHg 38%
14:00 +12°C° 0 mm 2 mps 674 mmHg 40%
15:00 +12°C° 0 mm 2 mps 674 mmHg 41%
16:00 +9°C° 0 mm 2 mps 673 mmHg 50%
17:00 +7°C° 0 mm 2 mps 673 mmHg 60%
18:00 +5°C° 0 mm 1 mps 672 mmHg 69%
19:00 +4°C° 0 mm 1 mps 673 mmHg 70%
20:00 +4°C° 0 mm 1 mps 673 mmHg 71%
21:00 +3°C° 0 mm 1 mps 673 mmHg 72%
22:00 +3°C° 0 mm 1 mps 673 mmHg 68%
23:00 +3°C° 0 mm 1 mps 673 mmHg 65%

2 March, Tuesday

Time Temperature Precipitation Wind Pressure Humidity
00:00 +2°C° 0 mm 1 mps 673 mmHg 61%
01:00 +2°C° 0 mm 1 mps 673 mmHg 57%
02:00 +2°C° 0 mm 1 mps 673 mmHg 53%
03:00 +2°C° 0 mm 1 mps 673 mmHg 48%
04:00 +2°C° 0 mm 1 mps 673 mmHg 47%
05:00 +2°C° 0 mm 1 mps 673 mmHg 46%
06:00 +2°C° 0 mm 1 mps 673 mmHg 44%
07:00 +4°C° 0 mm 1 mps 674 mmHg 42%
08:00 +6°C° 0 mm 1 mps 675 mmHg 39%
09:00 +8°C° 0 mm 1 mps 675 mmHg 36%
10:00 +9°C° 0 mm 2 mps 676 mmHg 35%
11:00 +10°C° 0 mm 2 mps 676 mmHg 34%
12:00 +13°C° 0 mm 2 mps 676 mmHg 33%
13:00 +13°C° 0 mm 2 mps 676 mmHg 36%
14:00 +13°C° 0 mm 2 mps 676 mmHg 39%
15:00 +13°C° 0 mm 2 mps 676 mmHg 41%
16:00 +10°C° 0 mm 2 mps 675 mmHg 51%
17:00 +8°C° 0 mm 1 mps 675 mmHg 61%
18:00 +6°C° 0 mm 1 mps 674 mmHg 71%
19:00 +5°C° 0 mm 1 mps 675 mmHg 73%
20:00 +5°C° 0 mm 1 mps 675 mmHg 75%
21:00 +4°C° 0 mm 1 mps 675 mmHg 77%
22:00 +4°C° 0 mm 1 mps 675 mmHg 75%
23:00 +4°C° 0 mm 1 mps 675 mmHg 73%

3 March, Wednesday

Time Temperature Precipitation Wind Pressure Humidity
00:00 +3°C° 0 mm 1 mps 675 mmHg 71%
01:00 +3°C° 0 mm 1 mps 675 mmHg 70%
02:00 +3°C° 0 mm 1 mps 675 mmHg 69%
03:00 +3°C° 0 mm 1 mps 675 mmHg 69%
04:00 +3°C° 0 mm 1 mps 675 mmHg 69%
05:00 +3°C° 0 mm 1 mps 675 mmHg 69%
06:00 +3°C° 0 mm 1 mps 675 mmHg 70%
07:00 +4°C° 0 mm 0 mps 676 mmHg 65%
08:00 +6°C° 0 mm 0 mps 677 mmHg 60%
09:00 +9°C° 0 mm 0 mps 677 mmHg 54%
10:00 +10°C° 0 mm 0 mps 677 mmHg 51%
11:00 +12°C° 0 mm 0 mps 678 mmHg 47%
12:00 +15°C° 0 mm 1 mps 678 mmHg 43%
13:00 +14°C° 0 mm 1 mps 677 mmHg 44%
14:00 +14°C° 0 mm 1 mps 677 mmHg 45%
15:00 +14°C° 0 mm 1 mps 676 mmHg 46%
16:00 +12°C° 0 mm 1 mps 676 mmHg 57%
17:00 +10°C° 0 mm 1 mps 675 mmHg 68%
18:00 +7°C° 0 mm 1 mps 674 mmHg 79%
19:00 +7°C° 0 mm 1 mps 675 mmHg 83%
20:00 +6°C° 0 mm 1 mps 675 mmHg 86%
21:00 +4°C° 0 mm 0 mps 675 mmHg 89%
22:00 +4°C° 0 mm 0 mps 675 mmHg 89%
23:00 +4°C° 0 mm 0 mps 674 mmHg 90%

4 March, Thursday

Time Temperature Precipitation Wind Pressure Humidity
00:00 +3°C° 0 mm 0 mps 674 mmHg 90%
01:00 +3°C° 0 mm 0 mps 674 mmHg 91%
02:00 +3°C° 0 mm 0 mps 673 mmHg 91%
03:00 +2°C° 0 mm 0 mps 673 mmHg 91%
04:00 +2°C° 0 mm 0 mps 673 mmHg 92%
05:00 +2°C° 0 mm 0 mps 673 mmHg 92%
06:00 +2°C° 0 mm 0 mps 672 mmHg 93%
07:00 +4°C° 0 mm 0 mps 673 mmHg 88%
08:00 +5°C° 0 mm 0 mps 673 mmHg 84%
09:00 +7°C° 0 mm 0 mps 673 mmHg 79%
10:00 +9°C° 0 mm 1 mps 673 mmHg 73%
11:00 +10°C° 0 mm 1 mps 673 mmHg 66%
12:00 +11°C° 0 mm 1 mps 673 mmHg 59%
13:00 +10°C° 0 mm 2 mps 672 mmHg 59%
14:00 +10°C° 0 mm 2 mps 672 mmHg 60%
15:00 +9°C° 0 mm 2 mps 671 mmHg 60%
16:00 +8°C° 0 mm 2 mps 671 mmHg 69%
17:00 +6°C° 0 mm 2 mps 670 mmHg 78%
18:00 +5°C° 0 mm 1 mps 670 mmHg 86%
19:00 +5°C° 0 mm 1 mps 669 mmHg 89%
20:00 +4°C° 0 mm 1 mps 669 mmHg 91%
21:00 +3°C° 0 mm 1 mps 669 mmHg 94%
22:00 +3°C° 0 mm 1 mps 669 mmHg 94%
23:00 +3°C° 0 mm 1 mps 669 mmHg 94%
Show more